Location: Unspecified
(10.5000°N, 0.0000°E)
Time: 13:51:17
(UTC+00:00)

Envisat - Pass Details

Date: 18 June 2019
Orbit: 764 x 766 km, 98.1° (Epoch: 19 August)

Event Time Altitude Azimuth Distance (km) Brightness Sun altitude
Rises 19:01:48 0° 178° (S) 3,220 5.9 -9.4°
Reaches altitude 10° 19:04:09 10° 182° (S) 2,295 5.2 -9.9°
Maximum altitude 19:09:04 53° 259° (WSW) 937 3.8 -11.0°
Drops below altitude 10° 19:14:00 10° 335° (NNW) 2,295 6.3 -12.1°
Sets 19:16:21 0° 340° (NNW) 3,221 7.0 -12.6°
